Flag for Canada Weather past 2 weeks in Québec, Quebec, Canada

Now
61 °F

Passing clouds.


Feels Like: 61 °F
Forecast: 52 / 74 °F
Wind: 6 mph from Southwest

Location: Quebec Weather Station

Current Time: Jul 29, 2014 at 9:35:05 PM

Latest Report: Jul 29, 2014 at 9:00 PM


Visibility: 30 mi

Pressure: 29.90 "Hg

Humidity: 77%

Dew point: 54 °F

Location of QuébecLocation

Historic Weather in Québec — Graph

°F

Québec temperature yesterday

Maximum temperature yesterday: 66 °F (at 12:00 PM)
Minimum temperature yesterday: 59 °F (at 2:00 AM)
Average temperature yesterday: 62 °F

Past Weeks' High & Low Weather Summary

 TemperatureHumidityPressure
High84 °F (Jul 21, 3:00 PM)100% (Jul 16, 4:00 AM)30.27 "Hg (Jul 16, 4:00 AM)
Low54 °F (Jul 19, 6:00 AM)38% (Jul 24, 4:00 PM)29.52 "Hg (Jul 29, 2:00 AM)
Average67 °F76%29.88 "Hg
* Reported Jul 14 8:00 PM — Jul 29 8:00 PM, Québec, Weather by CustomWeather, © 2014

Note: Actual official high and low records may vary slightly from our data, if they occured in-between our weather recording intervals... More about our weather records

Advertising

Québec weather history for previous 24 hours

 ConditionsComfort  
Time TempWeatherWind HumidityBarometerVisibility
8:00 PM
Jul 29
63 °FPassing clouds.7 mph73%29.88 "Hg30 mi
7:00 PM68 °FPassing clouds.8 mph64%29.85 "Hg30 mi
6:00 PM70 °FPassing clouds.15 mph57%29.83 "Hg30 mi
5:00 PM70 °FScattered clouds.17 mph57%29.82 "Hg30 mi
4:00 PM68 °FPartly sunny.15 mph60%29.80 "Hg30 mi
3:00 PM68 °FScattered clouds.17 mph64%29.79 "Hg30 mi
2:00 PM68 °FPartly sunny.10 mph60%29.77 "Hg30 mi
1:00 PM66 °FPartly sunny.15 mph64%29.76 "Hg30 mi
12:00 PM64 °FBroken clouds.15 mph73%29.75 "Hg30 mi
11:00 AM64 °FPartly sunny.13 mph73%29.72 "Hg30 mi
10:00 AM63 °FPartly sunny.18 mph77%29.68 "Hg30 mi
9:00 AM61 °FPartly sunny.15 mph83%29.65 "Hg30 mi
8:00 AM59 °FPartly sunny.12 mph88%29.63 "Hg30 mi
7:00 AM57 °FPartly sunny.6 mph88%29.60 "Hg30 mi
6:00 AM57 °FPassing clouds.12 mph88%29.58 "Hg30 mi
5:00 AM57 °FPartly cloudy.12 mph88%29.55 "Hg12 mi
4:00 AM57 °FSprinkles. Mostly cloudy.9 mph94%29.53 "Hg12 mi
3:00 AM59 °FSprinkles. Overcast.9 mph88%29.52 "Hg12 mi
2:00 AM59 °FSprinkles. Mostly cloudy.8 mph88%29.52 "Hg10 mi
1:00 AM59 °FSprinkles. Low clouds.8 mph88%29.52 "Hg15 mi
12:00 AM59 °FSprinkles. Mostly cloudy.10 mph88%29.54 "Hg8 mi
11:45 PM
Jul 28
59 °FSprinkles. Fog.8 mph94%29.55 "Hg4 mi
11:00 PM59 °FSprinkles. Fog.8 mph94%29.56 "Hg5 mi
10:45 PM59 °FSprinkles. Fog.9 mph94%29.56 "Hg4 mi
10:00 PM59 °FRain. Fog.5 mph100%29.57 "Hg2 mi
9:00 PM61 °FRain. Fog.2 mph94%29.57 "Hg5 mi
Weather by CustomWeather, © 2014

See weather overviewHow to use our weather pages